Location: Emory University Observatory
(33.7903°N, 84.3267°W)
Time: 00:37:54
(UTC-04:00)

Tiangong 1 - Pass Details

Date: 08 October 2017
Orbit: 292 x 320 km, 42.8° (Epoch: 21 October)

Event Time Altitude Azimuth Distance (km) Brightness Sun altitude
Rises 20:31:08 0° 293° (WNW) 2,033 6.1 -17.3°
Reaches altitude 10° 20:33:54 10° 325° (NW) 1,196 4.1 -17.8°
Maximum altitude 20:35:13 13° 354° (N) 1,054 3.4 -18.1°
Enters shadow 20:35:28 13° 0° (N) 1,059 3.3 -18.2°
